Location: Bonny Doon Airfield
(37.0704°N, 122.1252°W)
Time: 11:58:10
(UTC-07:00)

Hubble Space Telescope - Pass Details

Date: 09 October 2017
Orbit: 537 x 541 km, 28.5° (Epoch: 22 October)

Event Time Altitude Azimuth Distance (km) Brightness Sun altitude
Exits shadow 05:28:27 20° 182° (S) 1,283 2.6 -21.2°
Drops below altitude 10° 05:31:05 10° 143° (SE) 1,786 3.8 -20.7°
Sets 05:33:47 0° 126° (SE) 2,676 5.0 -20.2°
